Tracking 17264 objects as of 29-August-2015
HD Live streaming from Space Station

OPS 5058 (DMSP 5B F2)

Track OPS 5058 (DMSP 5B F2) now!
10-day predictions
OPS 5058 (DMSP 5B F2) is classified as:


NORAD ID: 5903
Int'l Code: 1972-018A
Perigee: 783.1 km
Apogee: 855.7 km
Inclination: 99.1 °
Period: 101.1 minutes
Semi major axis: 7190 km
RCS: 1.4687 m2 (large)
Launch date: March 24, 1972
Source: United States (US)
Your satellite tracking list
Your tracking list is empty





NASA's NSSDC Master Catalog

Two Line Element Set (TLE):
1 05903U 72018A   15240.18360947  .00000070  00000-0  50793-4 0  9990
2 05903 099.0821 278.0786 0050486 282.7199 076.8338 14.23880202328735

Source of the keplerian elements: AFSPC

N2YO: 229